PDA1301 UKDE-LROP

Flight info

Callsign PDA1301
Flight time 1h 13m
Altitude 36000
Route DITIX L63 RITED L140 RAPUL Y179 HONFA/K0852F370 Y179 BAGRI/N0461F360 DCT BULEN DCT OBUGA
Aircraft B738/M-SDE2E3FGHIRWXY/LB1

Departure

Time 2026-05-03 20:27
Airport Zaporizhzhia International Airport (UKDE)

Arrival

Time 2026-05-03 21:40
Airport Bucharest Henri Coandă International Airport (LROP)
Time Latitude Longitude Altitude Speed Heading
2026-05-03 20:15 47.87135 35.30244 371 ft 0 kts 311°
2026-05-03 20:20 47.87135 35.30243 371 ft 0 kts 312°
2026-05-03 20:20 47.87137 35.30242 371 ft 1 kts 322°
2026-05-03 20:20 47.87148 35.30237 368 ft 2 kts 352°
2026-05-03 20:21 47.87167 35.30256 372 ft 5 kts 52°
2026-05-03 20:21 47.87182 35.30317 367 ft 7 kts 89°
2026-05-03 20:21 47.87142 35.30362 371 ft 9 kts 160°
2026-05-03 20:21 47.87080 35.30415 366 ft 12 kts 150°
2026-05-03 20:22 47.86999 35.30486 368 ft 15 kts 149°
2026-05-03 20:22 47.86901 35.30572 365 ft 18 kts 149°
2026-05-03 20:22 47.86786 35.30671 361 ft 20 kts 149°
2026-05-03 20:22 47.86669 35.30772 359 ft 18 kts 150°
2026-05-03 20:23 47.86597 35.30924 357 ft 19 kts 93°
2026-05-03 20:23 47.86587 35.31123 355 ft 20 kts 94°
2026-05-03 20:23 47.86577 35.31334 361 ft 20 kts 94°
2026-05-03 20:23 47.86521 35.31385 367 ft 10 kts 212°
2026-05-03 20:24 47.86453 35.31337 366 ft 12 kts 203°
2026-05-03 20:24 47.86366 35.31281 360 ft 16 kts 203°
2026-05-03 20:24 47.86293 35.31236 361 ft 18 kts 203°
2026-05-03 20:24 47.86126 35.31133 355 ft 22 kts 202°
2026-05-03 20:25 47.86030 35.31073 354 ft 22 kts 202°
2026-05-03 20:25 47.85890 35.30981 354 ft 22 kts 190°
2026-05-03 20:25 47.85767 35.30948 354 ft 7 kts 245°
2026-05-03 20:25 47.85800 35.30920 355 ft 7 kts 26°
2026-05-03 20:26 47.85853 35.30958 357 ft 10 kts 25°
2026-05-03 20:26 47.85930 35.31012 356 ft 15 kts 25°
2026-05-03 20:26 47.86016 35.31070 356 ft 2 kts 23°
2026-05-03 20:26 47.86264 35.31223 364 ft 84 kts 22°
2026-05-03 20:27 47.87060 35.31715 385 ft 160 kts 22°
2026-05-03 20:27 47.88185 35.32473 1035 ft 188 kts 26°
2026-05-03 20:27 47.89380 35.33354 2051 ft 197 kts 29°
2026-05-03 20:27 47.90451 35.34612 2909 ft 198 kts 59°
2026-05-03 20:28 47.90822 35.36526 3709 ft 192 kts 88°
2026-05-03 20:28 47.90548 35.38468 4426 ft 195 kts 115°
2026-05-03 20:28 47.89643 35.40001 5077 ft 205 kts 144°
2026-05-03 20:28 47.88247 35.40654 5703 ft 221 kts 176°
2026-05-03 20:29 47.86738 35.40043 6369 ft 234 kts 212°
2026-05-03 20:29 47.85652 35.38257 7016 ft 241 kts 240°
2026-05-03 20:29 47.84856 35.36039 7707 ft 244 kts 241°
2026-05-03 20:29 47.84040 35.33776 8266 ft 257 kts 241°
2026-05-03 20:30 47.83138 35.31313 8489 ft 284 kts 240°
2026-05-03 20:30 47.82157 35.28655 8992 ft 298 kts 241°
2026-05-03 20:30 47.81257 35.25843 9734 ft 303 kts 246°
2026-05-03 20:30 47.80434 35.22925 10413 ft 311 kts 248°
2026-05-03 20:31 47.79584 35.19825 10619 ft 336 kts 248°
2026-05-03 20:31 47.78669 35.16494 10803 ft 359 kts 248°
2026-05-03 20:31 47.77691 35.12967 11081 ft 376 kts 247°
2026-05-03 20:31 47.76690 35.09390 11682 ft 382 kts 247°
2026-05-03 20:32 47.75658 35.05730 12438 ft 385 kts 247°
2026-05-03 20:32 47.74615 35.02050 13177 ft 388 kts 247°
2026-05-03 20:32 47.73560 34.98346 13886 ft 391 kts 247°
2026-05-03 20:32 47.72489 34.94593 14507 ft 395 kts 247°
2026-05-03 20:33 47.71412 34.90828 15130 ft 398 kts 247°
2026-05-03 20:33 47.70322 34.87027 15759 ft 401 kts 246°
2026-05-03 20:33 47.69221 34.83193 16354 ft 405 kts 246°
2026-05-03 20:33 47.68106 34.79314 16864 ft 411 kts 246°
2026-05-03 20:34 47.66975 34.75389 17454 ft 415 kts 246°
2026-05-03 20:34 47.65847 34.71478 18069 ft 418 kts 246°
2026-05-03 20:34 47.64698 34.67499 18622 ft 421 kts 246°
2026-05-03 20:34 47.63545 34.63516 19267 ft 419 kts 246°
2026-05-03 20:35 47.62398 34.59556 20057 ft 414 kts 246°
2026-05-03 20:35 47.61270 34.55667 20832 ft 409 kts 246°
2026-05-03 20:35 47.60146 34.51803 21465 ft 408 kts 246°
2026-05-03 20:35 47.59022 34.47944 22058 ft 408 kts 246°
2026-05-03 20:36 47.57898 34.44090 22689 ft 406 kts 246°
2026-05-03 20:36 47.56786 34.40282 23439 ft 401 kts 246°
2026-05-03 20:36 47.55679 34.36499 23982 ft 400 kts 246°
2026-05-03 20:36 47.54567 34.32700 24317 ft 404 kts 246°
2026-05-03 20:37 47.53443 34.28869 24621 ft 407 kts 246°
2026-05-03 20:37 47.52310 34.25012 24985 ft 409 kts 246°
2026-05-03 20:37 47.51135 34.21183 25351 ft 410 kts 241°
2026-05-03 20:37 47.49453 34.17786 25697 ft 412 kts 229°
2026-05-03 20:38 47.47548 34.14611 26081 ft 412 kts 229°
2026-05-03 20:38 47.45684 34.11445 26413 ft 414 kts 230°
2026-05-03 20:38 47.43800 34.08210 26738 ft 416 kts 229°
2026-05-03 20:38 47.41921 34.04965 27080 ft 417 kts 229°
2026-05-03 20:39 47.40032 34.01694 27402 ft 418 kts 229°
2026-05-03 20:39 47.38138 33.98415 27696 ft 420 kts 229°
2026-05-03 20:39 47.36234 33.95121 27995 ft 422 kts 229°
2026-05-03 20:39 47.34325 33.91822 28295 ft 423 kts 229°
2026-05-03 20:40 47.32413 33.88522 28604 ft 425 kts 229°
2026-05-03 20:40 47.30491 33.85212 28976 ft 423 kts 229°
2026-05-03 20:40 47.28581 33.81925 29483 ft 420 kts 228°
2026-05-03 20:40 47.26683 33.78662 29954 ft 418 kts 228°
2026-05-03 20:41 47.24791 33.75415 30336 ft 417 kts 227°
2026-05-03 20:41 47.22906 33.72183 30606 ft 418 kts 228°
2026-05-03 20:41 47.21002 33.68925 30829 ft 419 kts 228°
2026-05-03 20:41 47.19122 33.65711 31102 ft 419 kts 228°
2026-05-03 20:42 47.17217 33.62458 31351 ft 421 kts 228°
2026-05-03 20:42 47.15293 33.59178 31454 ft 425 kts 228°
2026-05-03 20:42 47.13362 33.55887 31729 ft 425 kts 227°
2026-05-03 20:42 47.11434 33.52605 32064 ft 424 kts 227°
2026-05-03 20:43 47.09500 33.49316 32348 ft 424 kts 227°
2026-05-03 20:43 47.07570 33.46041 32578 ft 425 kts 227°
2026-05-03 20:43 47.05633 33.42756 32825 ft 426 kts 227°
2026-05-03 20:43 47.03694 33.39472 33106 ft 425 kts 227°
2026-05-03 20:44 47.01759 33.36199 33364 ft 425 kts 227°
2026-05-03 20:44 46.99813 33.32911 33604 ft 426 kts 227°
2026-05-03 20:44 46.97903 33.29655 33859 ft 427 kts 230°
2026-05-03 20:44 46.96113 33.26180 34084 ft 428 kts 232°
2026-05-03 20:45 46.94394 33.22615 34274 ft 429 kts 233°
2026-05-03 20:45 46.92698 33.19023 34454 ft 430 kts 233°
2026-05-03 20:45 46.90994 33.15410 34628 ft 431 kts 233°
2026-05-03 20:45 46.89283 33.11807 34791 ft 432 kts 233°
2026-05-03 20:46 46.87558 33.08204 34975 ft 432 kts 233°
2026-05-03 20:46 46.85826 33.04611 35143 ft 433 kts 233°
2026-05-03 20:46 46.84076 33.00999 35313 ft 434 kts 233°
2026-05-03 20:46 46.82328 32.97406 35463 ft 435 kts 232°
2026-05-03 20:47 46.80565 32.93793 35574 ft 437 kts 232°
2026-05-03 20:47 46.78819 32.90218 35757 ft 437 kts 232°
2026-05-03 20:47 46.77054 32.86609 35953 ft 438 kts 232°
2026-05-03 20:47 46.75279 32.82986 36089 ft 439 kts 232°
2026-05-03 20:48 46.73502 32.79362 36233 ft 440 kts 232°
2026-05-03 20:48 46.71721 32.75733 36405 ft 440 kts 232°
2026-05-03 20:48 46.69938 32.72105 36557 ft 441 kts 232°
2026-05-03 20:48 46.68144 32.68460 36700 ft 442 kts 232°
2026-05-03 20:49 46.66342 32.64805 36768 ft 445 kts 232°
2026-05-03 20:49 46.64536 32.61143 36918 ft 445 kts 232°
2026-05-03 20:49 46.62724 32.57476 37111 ft 445 kts 232°
2026-05-03 20:49 46.60917 32.53822 37249 ft 446 kts 232°
2026-05-03 20:50 46.59126 32.50208 37347 ft 447 kts 232°
2026-05-03 20:50 46.57305 32.46537 37491 ft 447 kts 232°
2026-05-03 20:50 46.55480 32.42862 37645 ft 448 kts 232°
2026-05-03 20:50 46.53653 32.39189 37782 ft 448 kts 232°
2026-05-03 20:51 46.51819 32.35505 37848 ft 450 kts 231°
2026-05-03 20:51 46.49987 32.31832 37959 ft 451 kts 231°
2026-05-03 20:51 46.48139 32.28131 38079 ft 452 kts 231°
2026-05-03 20:52 46.44455 32.20767 38089 ft 453 kts 231°
2026-05-03 20:52 46.40756 32.13391 38087 ft 451 kts 231°
2026-05-03 20:53 46.37066 32.06053 38093 ft 450 kts 231°
2026-05-03 20:53 46.33387 31.98756 38093 ft 449 kts 231°
2026-05-03 20:54 46.29701 31.91467 38094 ft 448 kts 231°
2026-05-03 20:54 46.24159 31.80541 38092 ft 450 kts 231°
2026-05-03 20:55 46.20467 31.73287 38091 ft 451 kts 231°
2026-05-03 20:55 46.16737 31.65976 38097 ft 453 kts 231°
2026-05-03 20:56 46.12985 31.58641 38097 ft 455 kts 231°
2026-05-03 20:56 46.09213 31.51286 38104 ft 457 kts 231°
2026-05-03 20:57 46.05424 31.43917 38097 ft 459 kts 231°
2026-05-03 20:57 46.01615 31.36530 38088 ft 460 kts 231°
2026-05-03 20:58 45.97789 31.29127 38087 ft 461 kts 231°
2026-05-03 20:58 45.93956 31.21731 38091 ft 461 kts 231°
2026-05-03 20:59 45.90137 31.14381 38091 ft 462 kts 231°
2026-05-03 20:59 45.86291 31.06999 38089 ft 461 kts 231°
2026-05-03 21:00 45.83740 31.02112 38092 ft 460 kts 231°
2026-05-03 21:00 45.78639 30.92366 38091 ft 457 kts 231°
2026-05-03 21:01 45.74826 30.85105 38088 ft 455 kts 231°
2026-05-03 21:01 45.71011 30.77858 38088 ft 455 kts 231°
2026-05-03 21:02 45.67209 30.70655 38093 ft 456 kts 231°
2026-05-03 21:02 45.63374 30.63407 38103 ft 458 kts 231°
2026-05-03 21:03 45.59515 30.56134 38099 ft 460 kts 231°
2026-05-03 21:03 45.55635 30.48838 38101 ft 462 kts 230°
2026-05-03 21:04 45.51736 30.41526 38113 ft 464 kts 231°
2026-05-03 21:04 45.47845 30.34247 38100 ft 466 kts 231°
2026-05-03 21:05 45.43905 30.26895 38096 ft 468 kts 230°
2026-05-03 21:05 45.39933 30.19503 38099 ft 469 kts 230°
2026-05-03 21:06 45.35966 30.12139 38106 ft 469 kts 230°
2026-05-03 21:06 45.31992 30.04780 38105 ft 469 kts 230°
2026-05-03 21:07 45.28010 29.97426 38093 ft 469 kts 230°
2026-05-03 21:07 45.24032 29.90095 38097 ft 468 kts 230°
2026-05-03 21:08 45.20077 29.82827 38099 ft 467 kts 230°
2026-05-03 21:08 45.16744 29.74940 38126 ft 468 kts 243°
2026-05-03 21:09 45.13989 29.66565 38104 ft 468 kts 244°
2026-05-03 21:09 45.11236 29.58186 38102 ft 469 kts 243°
2026-05-03 21:10 45.08917 29.51248 38115 ft 469 kts 243°
2026-05-03 21:10 45.06095 29.42902 38104 ft 470 kts 243°
2026-05-03 21:11 45.03255 29.34555 38100 ft 471 kts 243°
2026-05-03 21:11 45.00420 29.26245 38101 ft 472 kts 243°
2026-05-03 21:12 44.97557 29.17875 38110 ft 473 kts 243°
2026-05-03 21:12 44.94687 29.09511 38106 ft 474 kts 243°
2026-05-03 21:13 44.91808 29.01146 38099 ft 474 kts 243°
2026-05-03 21:13 44.88920 28.92778 38113 ft 474 kts 242°
2026-05-03 21:14 44.86467 28.84148 38127 ft 477 kts 257°
2026-05-03 21:14 44.85412 28.74900 38113 ft 478 kts 261°
2026-05-03 21:15 44.84439 28.65628 38116 ft 478 kts 261°
2026-05-03 21:15 44.83412 28.56364 38075 ft 479 kts 260°
2026-05-03 21:16 44.82877 28.51689 37573 ft 483 kts 260°
2026-05-03 21:16 44.82343 28.47090 37149 ft 480 kts 260°
2026-05-03 21:16 44.81803 28.42464 36705 ft 476 kts 260°
2026-05-03 21:16 44.81264 28.37864 36281 ft 474 kts 260°
2026-05-03 21:17 44.80726 28.33286 35868 ft 473 kts 260°
2026-05-03 21:17 44.80186 28.28711 35472 ft 473 kts 260°
2026-05-03 21:17 44.79647 28.24151 35075 ft 472 kts 260°
2026-05-03 21:17 44.79107 28.19593 34675 ft 471 kts 260°
2026-05-03 21:18 44.78564 28.15028 34290 ft 471 kts 260°
2026-05-03 21:18 44.78022 28.10481 33871 ft 471 kts 259°
2026-05-03 21:18 44.77479 28.05942 33411 ft 470 kts 259°
2026-05-03 21:18 44.76933 28.01400 32960 ft 470 kts 258°
2026-05-03 21:19 44.76394 27.96922 32522 ft 469 kts 258°
2026-05-03 21:19 44.75847 27.92405 32091 ft 468 kts 258°
2026-05-03 21:19 44.75300 27.87900 31671 ft 466 kts 258°
2026-05-03 21:19 44.74752 27.83401 31251 ft 465 kts 257°
2026-05-03 21:20 44.74206 27.78935 30786 ft 463 kts 257°
2026-05-03 21:20 44.73655 27.74446 30160 ft 465 kts 256°
2026-05-03 21:20 44.73102 27.69962 29477 ft 465 kts 256°
2026-05-03 21:20 44.72546 27.65471 28777 ft 465 kts 257°
2026-05-03 21:21 44.71991 27.60994 28098 ft 465 kts 257°
2026-05-03 21:21 44.71432 27.56502 27435 ft 465 kts 257°
2026-05-03 21:21 44.70870 27.52000 26805 ft 470 kts 258°
2026-05-03 21:21 44.70302 27.47479 26176 ft 484 kts 259°
2026-05-03 21:22 44.69715 27.42746 25559 ft 495 kts 261°
2026-05-03 21:22 44.69190 27.37973 24943 ft 492 kts 262°
2026-05-03 21:22 44.68715 27.33241 24343 ft 486 kts 262°
2026-05-03 21:22 44.68259 27.28552 23758 ft 482 kts 263°
2026-05-03 21:23 44.67802 27.23895 23071 ft 480 kts 263°
2026-05-03 21:23 44.67339 27.19260 22390 ft 477 kts 263°
2026-05-03 21:23 44.66868 27.14655 21731 ft 475 kts 262°
2026-05-03 21:23 44.66394 27.10081 21093 ft 471 kts 262°
2026-05-03 21:24 44.65919 27.05553 20444 ft 467 kts 263°
2026-05-03 21:24 44.65444 27.01057 19817 ft 463 kts 263°
2026-05-03 21:24 44.64974 26.96614 19206 ft 459 kts 263°
2026-05-03 21:24 44.64509 26.92243 18614 ft 455 kts 263°
2026-05-03 21:25 44.64043 26.87866 17958 ft 450 kts 263°
2026-05-03 21:25 44.63585 26.83585 17272 ft 437 kts 263°
2026-05-03 21:25 44.63138 26.79432 16597 ft 423 kts 263°
2026-05-03 21:25 44.62705 26.75411 15943 ft 411 kts 263°
2026-05-03 21:26 44.62283 26.71498 15322 ft 400 kts 263°
2026-05-03 21:26 44.61869 26.67679 14710 ft 391 kts 263°
2026-05-03 21:26 44.61464 26.63941 14097 ft 383 kts 263°
2026-05-03 21:26 44.61066 26.60288 13436 ft 375 kts 263°
2026-05-03 21:27 44.60675 26.56703 12777 ft 368 kts 263°
2026-05-03 21:27 44.60289 26.53181 12107 ft 363 kts 264°
2026-05-03 21:27 44.59906 26.49681 11350 ft 361 kts 264°
2026-05-03 21:27 44.59525 26.46216 10635 ft 357 kts 264°
2026-05-03 21:28 44.59148 26.42823 9906 ft 346 kts 264°
2026-05-03 21:28 44.58802 26.39528 9099 ft 336 kts 266°
2026-05-03 21:28 44.58564 26.36317 8309 ft 327 kts 268°
2026-05-03 21:28 44.58351 26.33180 7540 ft 318 kts 268°
2026-05-03 21:29 44.58143 26.30131 6798 ft 311 kts 268°
2026-05-03 21:29 44.57955 26.27142 6019 ft 304 kts 267°
2026-05-03 21:29 44.57729 26.24222 5242 ft 298 kts 266°
2026-05-03 21:29 44.57508 26.21362 4474 ft 292 kts 267°
2026-05-03 21:30 44.57563 26.18603 4144 ft 270 kts 282°
2026-05-03 21:30 44.58133 26.16227 3980 ft 245 kts 302°
2026-05-03 21:30 44.59139 26.14442 3934 ft 224 kts 318°
2026-05-03 21:30 44.60398 26.13149 3403 ft 229 kts 334°
2026-05-03 21:31 44.61856 26.12488 3357 ft 215 kts 350°
2026-05-03 21:31 44.63332 26.12387 3450 ft 215 kts
2026-05-03 21:31 44.64807 26.12851 3545 ft 222 kts 22°
2026-05-03 21:31 44.66134 26.13962 3479 ft 220 kts 39°
2026-05-03 21:32 44.67171 26.15469 3377 ft 207 kts 47°
2026-05-03 21:32 44.67907 26.17128 3093 ft 201 kts 75°
2026-05-03 21:32 44.68009 26.19000 3119 ft 181 kts 87°
2026-05-03 21:32 44.68063 26.20815 3380 ft 202 kts 86°
2026-05-03 21:33 44.68123 26.22818 4047 ft 204 kts 86°
2026-05-03 21:33 44.68166 26.24797 4407 ft 201 kts 86°
2026-05-03 21:33 44.68200 26.26777 4435 ft 202 kts 86°
2026-05-03 21:33 44.68230 26.28730 4435 ft 197 kts 86°
2026-05-03 21:34 44.68253 26.30643 4211 ft 194 kts 86°
2026-05-03 21:34 44.68277 26.32539 3814 ft 194 kts 89°
2026-05-03 21:34 44.67912 26.34313 3413 ft 196 kts 125°
2026-05-03 21:34 44.66817 26.35435 2973 ft 199 kts 165°
2026-05-03 21:35 44.65456 26.35697 2700 ft 198 kts 175°
2026-05-03 21:35 44.64090 26.35845 2676 ft 192 kts 176°
2026-05-03 21:35 44.62792 26.35978 2643 ft 184 kts 176°
2026-05-03 21:35 44.61514 26.36107 2659 ft 184 kts 176°
2026-05-03 21:36 44.60263 26.35912 2638 ft 182 kts 208°
2026-05-03 21:36 44.59369 26.34710 2680 ft 181 kts 238°
2026-05-03 21:36 44.58683 26.33202 2653 ft 185 kts 248°
2026-05-03 21:36 44.58430 26.31482 2660 ft 178 kts 264°
2026-05-03 21:37 44.58257 26.29780 2648 ft 175 kts 263°
2026-05-03 21:37 44.58088 26.28066 2477 ft 176 kts 263°
2026-05-03 21:37 44.57930 26.26386 2285 ft 176 kts 263°
2026-05-03 21:37 44.57767 26.24700 2101 ft 173 kts 264°
2026-05-03 21:38 44.57634 26.23027 1897 ft 171 kts 265°
2026-05-03 21:38 44.57508 26.21372 1686 ft 170 kts 265°
2026-05-03 21:38 44.57383 26.19730 1482 ft 169 kts 265°
2026-05-03 21:38 44.57259 26.18091 1287 ft 169 kts 265°
2026-05-03 21:39 44.57139 26.16456 1042 ft 168 kts 265°
2026-05-03 21:39 44.57032 26.14831 758 ft 165 kts 265°
2026-05-03 21:39 44.56901 26.13273 621 ft 160 kts 262°
2026-05-03 21:39 44.56775 26.11776 374 ft 150 kts 264°
2026-05-03 21:40 44.56662 26.10296 321 ft 163 kts 264°
2026-05-03 21:40 44.56596 26.09371 317 ft 37 kts 264°
2026-05-03 21:40 44.56575 26.09069 319 ft 30 kts 264°
2026-05-03 21:40 44.56556 26.08789 319 ft 28 kts 271°
2026-05-03 21:41 44.56643 26.08602 320 ft 21 kts 334°
2026-05-03 21:41 44.56788 26.08568 319 ft 21 kts 354°
2026-05-03 21:41 44.56896 26.08497 319 ft 18 kts 275°
2026-05-03 21:41 44.56949 26.08351 319 ft 17 kts 289°
2026-05-03 21:42 44.56957 26.08199 318 ft 8 kts 316°
2026-05-03 21:42 44.57009 26.08199 319 ft 7 kts 359°
2026-05-03 21:42 44.57022 26.08197 319 ft 0 kts 354°
2026-05-03 21:42 44.57026 26.08197 318 ft 0 kts 355°